{"data":{"norad_id":44949,"intl_designator":"2020-001AM","name":"STARLINK-1122","alt_names":[],"object_type":"PAYLOAD","status":"ACTIVE","operator":null,"country":"US","launch_date":"2020-01-07","launch_site_code":"AFETR","launch_vehicle":null,"mission":null,"orbit_class":"UNKNOWN","rcs_meters":null,"size_class":null,"mass_kg":null,"dimensions":null,"purposes":["comms"],"wikipedia_slug":null,"has_3d_model":false,"image_url":null,"decayed_at":null,"tle_current":{"epoch":"2026-05-24T21:50:00.716064Z","epoch_age_seconds":85948,"freshness":"FRESH","line1":"1 44949U 20001AM  26144.90973051  .00068248  00000+0  11118-2 0  9995","line2":"2 44949  53.1570 321.0427 0002431 271.5341  88.5391 15.52028491351960","mean_motion":15.52028491,"eccentricity":0.0002431,"inclination_deg":53.157,"raan_deg":321.0427,"arg_perigee_deg":271.5341,"mean_anomaly_deg":88.5391,"bstar":0.0011118,"rev_number":35196,"period_min":92.781801903146,"perigee_km":409.15382636142,"apogee_km":412.4546095816,"semimajor_km":6788.9412179715,"source":"CELESTRAK","updated_at":"2026-05-25T13:38:16.376019Z"}}}